Location: Grange Verzio
(44.5000°N, 6.9833°E)
Time: 10:02:38
(UTC+00:00)

Cosmos 2219 Rocket - Pass Details

Date: 01 February 2023
Orbit: 826 x 848 km, 71.0° (Epoch: 30 March)

Event Time Altitude Azimuth Distance (km) Brightness Sun altitude
Rises 20:19:18 0° 230° (SW) 3,354 5.7 -38.9°
Reaches altitude 10° 20:21:56 10° 239° (WSW) 2,426 5.0 -39.4°
Enters shadow 20:23:33 18° 249° (WSW) 1,907 4.4 -39.7°
